DW3361 Weather Reports


Display with metric or nautical units.
time (UTC)temp
F
wind
direction
speed
MPH
gust
MPH
rain 1hr
in
rain 24hr
in
rain mn
in
humidity
%
barometer
mb
20260504050002 46 174 0.0 0.0 0.00 0.00 0.00 85 1015.4
20260504044600 44 174 0.0 0.0 0.00 0.00 0.00 88 1015.4
20260504043113 43 174 0.0 0.0 0.00 0.00 0.00 86 1015.4
20260504041554 42 174 0.0 0.0 0.00 0.00 0.00 85 1015.4
20260504040050 42 174 0.0 0.0 0.00 0.00 0.00 85 1015.4
20260504034552 42 174 0.0 0.0 0.00 0.00 0.00 84 1015.3
20260504033047 42 174 0.0 0.0 0.00 0.00 0.00 83 1015.3
20260504031552 43 174 0.0 0.0 0.00 0.00 0.00 84 1015.3
20260504030100 43 174 0.0 0.0 0.00 0.00 0.00 82 1015.3
20260504024544 43 174 0.0 0.0 0.00 0.00 0.00 82 1015.3
20260504023042 43 174 0.0 0.0 0.00 0.00 0.00 79 1015.3
20260504021546 43 174 0.0 0.0 0.00 0.00 0.00 79 1015.3
20260504020040 44 174 0.0 0.0 0.00 0.00 0.00 79 1015.4
20260504014538 44 174 0.0 0.0 0.00 0.00 0.00 78 1015.3
20260504013038 44 174 0.0 0.0 0.00 0.00 0.00 75 1015.3
20260504011535 45 174 0.0 0.0 0.00 0.00 0.00 74 1015.2
20260504010032 45 174 0.0 0.0 0.00 0.00 0.00 73 1015.3
20260504004541 45 174 0.0 0.0 0.00 0.00 0.00 73 1015.3
20260504003031 46 174 0.0 0.0 0.00 0.00 0.00 72 1015.3
20260504001534 45 174 0.0 0.0 0.00 0.00 0.00 72 1015.3
20260504000026 46 174 0.0 0.0 0.00 0.00 0.00 71 1015.3
20260503234527 46 174 0.0 0.0 0.00 0.00 0.00 71 1015.2
20260503233022 47 174 0.0 0.0 0.00 0.00 0.00 70 1015.2
20260503231522 47 174 0.0 0.0 0.00 0.00 0.00 70 1015.1
20260503230020 48 174 0.0 0.0 0.00 0.00 0.00 67 1015.0
20260503224516 48 174 0.0 0.0 0.00 0.00 0.00 66 1015.0
20260503223015 49 174 0.0 0.0 0.00 0.00 0.00 66 1015.1
20260503221513 49 174 0.0 0.0 0.00 0.00 0.00 66 1015.0
20260503220020 50 174 0.0 0.0 0.00 0.00 0.00 63 1014.9
20260503214520 51 174 0.0 0.0 0.00 0.00 0.00 63 1014.9
20260503213013 52 174 0.0 0.0 0.00 0.00 0.00 60 1015.0
20260503211512 53 174 0.0 0.0 0.00 0.00 0.00 60 1015.0
20260503210013 54 174 0.0 0.0 0.00 0.00 0.00 58 1014.8
20260503204511 55 174 0.0 0.0 0.00 0.00 0.00 56 1014.8
20260503203009 56 174 0.0 0.0 0.00 0.00 0.00 54 1014.9
20260503201506 57 174 0.0 0.0 0.00 0.00 0.00 53 1014.9
20260503200005 58 174 0.0 0.0 0.00 0.00 0.00 50 1014.9
20260503194504 60 174 0.0 0.0 0.00 0.00 0.00 49 1014.9
20260503193006 61 174 0.0 1.0 0.00 0.00 0.00 47 1014.8
20260503191503 62 174 0.0 0.0 0.00 0.00 0.00 45 1014.7
20260503190006 64 174 0.0 2.0 0.00 0.00 0.00 42 1014.5
20260503184504 66 174 0.0 0.0 0.00 0.00 0.00 39 1014.3
20260503183002 67 173 0.0 3.0 0.00 0.00 0.00 37 1014.2
20260503181506 68 183 2.0 7.0 0.00 0.00 0.00 37 1014.0
20260503180003 69 261 0.0 1.0 0.00 0.00 0.00 35 1013.7
20260503174618 70 248 0.0 3.0 0.00 0.00 0.00 33 1013.8
20260503173111 71 278 0.0 5.0 0.00 0.00 0.00 31 1013.7
20260503171559 72 276 3.0 14.0 0.00 0.00 0.00 31 1013.6
20260503170113 73 275 2.0 12.0 0.00 0.00 0.00 30 1013.6
20260503081550 68 216 0.0 4.0 0.00 0.00 0.00 40 1017.9